Location: Baia Mare
(47.6567°N, 23.5850°E)
Time: 04:02:17
(UTC+02:00)

ISS - Pass Details

Date: 30 September 2018
Orbit: 402 x 408 km, 51.6° (Epoch: 18 November)

Event Time Altitude Azimuth Distance (km) Brightness Sun altitude
Rises 20:47:59 0° 279° (W) 2,345 1.8 -17.6°
Reaches altitude 10° 20:50:09 10° 287° (WNW) 1,483 0.3 -18.0°
Maximum altitude 20:53:19 39° 359° (N) 632 -2.8 -18.5°
Enters shadow 20:54:02 34° 32° (NNE) 703 -2.8 -18.6°
